Location: Leiter
(44.7178°N, 106.2687°W)
Time: 21:54:22
(UTC+00:00)

STARS - Pass Details

Date: 07 July 2022
Orbit: 620 x 637 km, 98.2° (Epoch: 07 August)

Event Time Altitude Azimuth Distance (km) Brightness Sun altitude
Rises 05:10:40 0° 22° (NNE) 2,924 ? -17.4°
Reaches altitude 10° 05:13:04 10° 33° (NNE) 2,009 ? -17.6°
Maximum altitude 05:17:01 32° 97° (E) 1,072 ? -17.9°
Enters shadow 05:17:41 31° 116° (ESE) 1,109 ? -18.0°
